Stations météo

réclame
Mon MeteoGroup
Drumalbin, Grande-Bretagne (3155): Température de l'air & dewpoint: 18.05.2019 02:00:00 - 24.05.2019 02:00:00 (BST)Drumalbin, Grande-Bretagne (3155): Température de l'air -20cm & Température de l'air -100cm: 18.05.2019 02:00:00 - 24.05.2019 02:00:00 (BST)Drumalbin, Grande-Bretagne (3155): Vitesse du vent & gusts: 18.05.2019 02:00:00 - 24.05.2019 02:00:00 (BST)Drumalbin, Grande-Bretagne (3155): Direction du vent: 18.05.2019 02:00:00 - 24.05.2019 02:00:00 (BST)Drumalbin, Grande-Bretagne (3155): reduced air pressure: 18.05.2019 02:00:00 - 24.05.2019 02:00:00 (BST)Drumalbin, Grande-Bretagne (3155): visibility: 18.05.2019 02:00:00 - 24.05.2019 02:00:00 (BST)Drumalbin, Grande-Bretagne (3155): Quantités de précipitations: 18.05.2019 02:00:00 - 24.05.2019 02:00:00 (BST)
Date & Time tt [°C] td [°C] tt -20cm [°C] tt -100cm [°C] ff [km/h] ff [knt] fx [km/h] fx [knt] dd ppp [hPa] vv [km] rr [mm]
24.05.2019 02:00:00 8,3 6,0 - - 21 11 - - WNW 1015,5 60 0,0
24.05.2019 01:00:00 8,4 5,5 - - 26 14 - - WNW 1015,3 75 0,0
24.05.2019 00:00:00 8,7 6,0 - - 24 13 - - W 1014,7 75 0,0
23.05.2019 23:00:00 9,0 5,7 - - 28 15 - - W 1014,7 70 0,0
23.05.2019 22:00:00 8,9 5,0 - - 26 14 - - W 1014,8 70 0,0
23.05.2019 21:00:00 9,9 5,1 - - 22 12 - - WNW 1014,7 75 0,0
23.05.2019 20:00:00 10,8 5,2 - - 28 15 - - WNW 1014,3 70 0,0
23.05.2019 19:00:00 12,5 5,9 - - 28 15 - - WNW 1014,0 75 0,0
23.05.2019 18:00:00 13,2 6,2 - - 28 15 - - WNW 1013,9 65 0,0
23.05.2019 17:00:00 13,2 7,1 - - 29 16 - - WNW 1013,7 75 0,0
23.05.2019 16:00:00 13,2 7,0 - - 28 15 46 25 WNW 1013,6 60 0,0
23.05.2019 15:00:00 12,5 6,2 - - 34 18 46 25 W 1013,6 75 0,0
23.05.2019 14:00:00 13,8 7,7 - - 31 17 46 25 WNW 1013,7 30 0,0
23.05.2019 13:00:00 12,9 7,9 - - 29 16 46 25 WNW 1013,9 75 0,0
23.05.2019 12:00:00 11,5 7,0 - - 28 15 - - W 1014,3 75 0,0
23.05.2019 11:00:00 10,4 6,4 - - 26 14 - - WNW 1014,5 75 0,0
23.05.2019 10:00:00 9,7 6,0 12,0 10,0 26 14 - - W 1014,7 70 0,0
23.05.2019 09:00:00 8,9 6,3 - - 24 13 - - W 1014,8 75 0,0
23.05.2019 08:00:00 7,5 5,9 - - 22 12 - - WSW 1015,0 50 0,0
23.05.2019 07:00:00 7,0 5,6 - - 21 11 - - W 1015,0 65 0,0
23.05.2019 06:00:00 6,1 5,5 - - 18 10 - - W 1015,0 45 0,0
23.05.2019 05:00:00 5,3 4,8 - - 15 8 - - WSW 1015,1 40 0,0
23.05.2019 04:00:00 4,1 3,3 - - 5 3 - - W 1015,5 23 0,0
23.05.2019 03:00:00 5,2 4,5 - - 16 9 - - WSW 1015,4 35 0,0
23.05.2019 02:00:00 5,4 4,1 - - 15 8 - - W 1015,9 55 0,0
23.05.2019 01:00:00 6,3 4,5 - - 21 11 - - W 1016,0 70 0,0
23.05.2019 00:00:00 6,5 4,7 - - 21 11 - - W 1016,3 60 0,0
22.05.2019 23:00:00 6,9 4,8 - - 18 10 - - W 1016,3 65 0,0
22.05.2019 22:00:00 6,7 4,6 - - 16 9 - - W 1016,3 65 0,0
22.05.2019 21:00:00 9,8 4,9 - - 18 10 - - WNW 1016,1 75 0,0
22.05.2019 20:00:00 11,4 5,1 - - 26 14 - - W 1015,8 75 0,0
22.05.2019 19:00:00 12,0 5,6 - - 28 15 - - W 1016,1 75 0,0
22.05.2019 18:00:00 12,0 6,1 - - 26 14 - - W 1016,1 70 0,0
22.05.2019 17:00:00 11,9 5,9 - - 26 14 - - W 1016,4 75 0,0
22.05.2019 16:00:00 12,2 5,7 - - 24 13 - - W 1016,5 75 0,0
22.05.2019 15:00:00 13,4 6,5 - - 22 12 - - W 1016,6 70 0,0
22.05.2019 14:00:00 12,6 6,9 - - 22 12 - - WNW 1016,9 75 0,0
22.05.2019 13:00:00 12,4 6,7 - - 21 11 - - WNW 1017,1 35 0,0
22.05.2019 12:00:00 11,1 5,9 - - 24 13 - - WNW 1017,3 75 0,0
22.05.2019 11:00:00 10,7 6,1 - - 22 12 - - WNW 1017,5 75 0,0
22.05.2019 10:00:00 9,9 5,9 12,2 10,0 21 11 - - WNW 1017,7 70 0,0
22.05.2019 09:00:00 9,2 4,3 - - 26 14 - - WNW 1017,7 70 0,0
22.05.2019 08:00:00 7,9 4,8 - - 21 11 - - W 1018,1 70 0,0
22.05.2019 07:00:00 5,9 4,9 - - 13 7 - - WSW 1018,4 65 0,0
22.05.2019 06:00:00 4,6 4,2 - - 15 8 - - WSW 1018,5 55 0,0
22.05.2019 05:00:00 3,3 2,7 - - 9 5 - - WSW 1018,9 50 0,0
22.05.2019 04:00:00 3,4 2,6 - - 9 5 - - WSW 1019,1 45 0,0
22.05.2019 03:00:00 4,2 3,1 - - 11 6 - - WSW 1019,1 65 0,0
22.05.2019 02:00:00 3,9 2,2 - - 11 6 - - WSW 1019,4 70 0,0
22.05.2019 01:00:00 4,4 2,3 - - 11 6 - - SW 1019,4 70 0,0
22.05.2019 00:00:00 5,4 3,0 - - 9 5 - - SW 1019,3 70 0,0
21.05.2019 23:00:00 6,7 3,5 - - 11 6 - - WSW 1019,3 75 0,0
21.05.2019 22:00:00 7,3 4,4 - - 11 6 - - W 1019,2 70 0,0
21.05.2019 21:00:00 10,3 4,9 - - 13 7 - - WNW 1018,7 75 0,0
21.05.2019 20:00:00 12,3 4,7 - - 21 11 - - WNW 1018,2 65 0,0
21.05.2019 19:00:00 13,2 4,7 - - 29 16 - - W 1018,0 75 0,0
21.05.2019 18:00:00 14,0 4,6 - - 28 15 - - W 1017,9 65 0,0
21.05.2019 17:00:00 13,8 5,3 - - 24 13 - - W 1017,8 70 0,0
21.05.2019 16:00:00 13,7 5,2 - - 18 10 - - W 1017,7 75 0,0
21.05.2019 15:00:00 15,3 4,1 - - 16 9 - - WSW 1017,6 75 0,0
21.05.2019 14:00:00 14,7 5,7 - - 16 9 - - W 1017,7 65 0,0
21.05.2019 13:00:00 12,5 6,2 - - 13 7 - - WNW 1018,1 70 0,0
21.05.2019 12:00:00 13,5 7,8 - - 15 8 - - WNW 1018,0 35 0,0
21.05.2019 11:00:00 13,0 7,3 - - 15 8 - - NW 1017,9 70 0,0
21.05.2019 10:00:00 11,9 7,6 12,0 9,9 11 6 - - NW 1018,0 60 0,0
21.05.2019 09:00:00 10,6 7,9 - - 11 6 - - WNW 1017,8 55 0,0
21.05.2019 08:00:00 8,7 7,4 - - 11 6 - - W 1017,8 50 0,0
21.05.2019 07:00:00 7,4 7,1 - - 9 5 - - WSW 1017,6 30 0,0
21.05.2019 06:00:00 6,8 6,6 - - 9 5 - - WSW 1017,7 21 0,0
21.05.2019 05:00:00 6,5 6,3 - - 15 8 - - WSW 1017,5 13 0,0
21.05.2019 04:00:00 6,3 5,8 - - 11 6 - - WSW 1017,1 18 0,0
21.05.2019 03:00:00 7,0 6,0 - - 13 7 - - WSW 1017,0 27 0,0
21.05.2019 02:00:00 8,3 6,8 - - 11 6 - - WSW 1016,5 40 0,0
21.05.2019 01:00:00 8,8 7,0 - - 11 6 - - WSW 1016,4 45 0,0
21.05.2019 00:00:00 8,8 7,1 - - 11 6 - - WSW 1016,2 50 0,0
20.05.2019 23:00:00 7,8 6,2 - - 9 5 - - SW 1016,0 45 0,0
20.05.2019 22:00:00 9,8 7,3 - - 9 5 - - W 1015,6 55 0,0
20.05.2019 21:00:00 10,4 8,2 - - 5 3 - - NW 1015,1 55 0,0
20.05.2019 20:00:00 11,0 7,9 - - 15 8 - - NNW 1014,9 65 0,0
20.05.2019 19:00:00 12,9 7,6 - - 16 9 - - WNW 1014,2 60 0,2
20.05.2019 18:00:00 12,9 7,4 - - 16 9 - - NW 1013,8 55 0,0
20.05.2019 17:00:00 12,9 7,5 - - 15 8 - - WNW 1013,7 60 0,0
20.05.2019 16:00:00 13,3 8,2 - - 16 9 - - WNW 1013,5 50 0,0
20.05.2019 15:00:00 13,2 8,3 - - 13 7 - - WNW 1013,4 65 0,0
20.05.2019 14:00:00 11,9 8,4 - - 16 9 - - NNW 1013,6 55 0,0
20.05.2019 13:00:00 13,1 9,6 - - 15 8 - - WNW 1013,3 50 0,0
20.05.2019 12:00:00 12,0 8,5 - - 15 8 - - WNW 1013,3 65 0,0
20.05.2019 11:00:00 11,5 8,9 - - 15 8 - - WNW 1013,2 55 0,0
20.05.2019 10:00:00 10,9 8,6 12,0 9,7 15 8 - - WNW 1013,1 50 0,0
20.05.2019 09:00:00 10,3 8,1 - - 16 9 - - W 1013,2 55 0,0
20.05.2019 08:00:00 9,3 7,8 - - 13 7 - - W 1012,9 55 0,0
20.05.2019 07:00:00 8,5 7,6 - - 11 6 - - WSW 1012,7 29 0,0
20.05.2019 06:00:00 8,2 7,4 - - 11 6 - - WSW 1012,4 30 0,0
20.05.2019 05:00:00 8,2 7,5 - - 5 3 - - WSW 1012,3 29 0,0
20.05.2019 04:00:00 8,3 7,7 - - 9 5 - - WSW 1012,3 25 0,0
20.05.2019 03:00:00 8,3 7,8 - - 8 4 - - WSW 1012,2 30 0,0
20.05.2019 02:00:00 8,0 7,6 - - 8 4 - - SW 1012,4 29 0,0
20.05.2019 01:00:00 7,5 6,7 - - 9 5 - - SW 1012,6 22 0,0
20.05.2019 00:00:00 8,5 7,4 - - 8 4 - - WSW 1012,4 23 0,0
19.05.2019 23:00:00 9,4 8,1 - - 9 5 - - W 1012,2 35 0,0
19.05.2019 22:00:00 9,6 7,7 - - 9 5 - - W 1011,9 35 0,0
19.05.2019 21:00:00 10,3 8,2 - - 13 7 - - W 1011,5 40 0,0
19.05.2019 20:00:00 11,0 8,6 - - 15 8 - - W 1011,1 21 0,0
19.05.2019 19:00:00 12,2 8,7 - - 13 7 - - WNW 1010,5 40 0,0
19.05.2019 18:00:00 11,6 8,7 - - 4 2 - - WNW 1010,4 40 0,0
19.05.2019 17:00:00 11,5 8,3 - - 8 4 - - WSW 1010,4 40 0,0
19.05.2019 16:00:00 12,0 7,7 - - 9 5 - - W 1010,3 50 0,0
19.05.2019 15:00:00 11,8 8,4 - - 11 6 - - W 1010,2 45 0,0
19.05.2019 14:00:00 11,3 8,2 - - 16 9 - - W 1010,0 40 0,0
19.05.2019 13:00:00 11,3 8,0 - - 9 5 - - WSW 1009,9 65 0,0
19.05.2019 12:00:00 11,9 7,8 - - 11 6 - - W 1009,5 60 0,0
19.05.2019 11:00:00 10,9 8,2 - - 11 6 - - W 1009,5 55 0,0
19.05.2019 10:00:00 9,3 8,4 12,0 9,7 11 6 - - W 1009,5 16 0,0
19.05.2019 09:00:00 9,1 8,5 - - 8 4 - - W 1009,1 27 0,0
19.05.2019 08:00:00 8,9 8,4 - - 9 5 - - WSW 1008,6 45 0,0
19.05.2019 07:00:00 8,6 8,5 - - 13 7 - - WSW 1008,3 7 0,0
19.05.2019 06:00:00 8,6 8,5 - - 15 8 - - SSW 1008,1 3,8 0,0
19.05.2019 05:00:00 8,5 8,2 - - 15 8 - - SSW 1007,9 3,4 0,2
19.05.2019 04:00:00 8,7 8,3 - - 11 6 - - SSW 1007,9 10 0,0
19.05.2019 03:00:00 9,0 8,8 - - 8 4 - - SSW 1007,7 9 0,0
19.05.2019 02:00:00 9,2 9,1 - - 0 0 - - N 1007,6 5 0,0
19.05.2019 01:00:00 9,2 9,1 - - 2 1 - - NNE 1007,7 3,4 0,2
19.05.2019 00:00:00 9,2 9,0 - - 2 1 - - NE 1007,8 4,6 0,0
18.05.2019 23:00:00 9,3 9,1 - - 2 1 - - S 1007,9 7 0,2
18.05.2019 22:00:00 9,2 9,0 - - 2 1 - - ENE 1007,9 9 0,2
18.05.2019 21:00:00 9,4 8,9 - - 5 3 - - NNE 1007,6 7 0,4
18.05.2019 20:00:00 9,9 9,3 - - 5 3 - - ENE 1007,3 3,3 0,2
18.05.2019 19:00:00 10,6 8,9 - - 5 3 - - NE 1007,1 29 0,0
18.05.2019 18:00:00 10,6 9,2 - - 11 6 - - NE 1006,9 50 0,0
18.05.2019 17:00:00 10,8 9,1 - - 13 7 - - ENE 1007,0 70 0,0
18.05.2019 16:00:00 10,6 9,1 - - 15 8 - - NE 1007,0 70 0,0
18.05.2019 15:00:00 10,5 9,6 - - 13 7 - - NE 1007,2 55 0,0
18.05.2019 14:00:00 9,6 9,1 - - 15 8 - - NE 1007,4 4,3 0,2
18.05.2019 13:00:00 9,8 9,0 - - 11 6 - - NE 1007,5 6 0,0
18.05.2019 12:00:00 9,6 8,5 - - 13 7 - - NE 1007,6 50 0,0
18.05.2019 11:00:00 9,6 8,6 - - 11 6 - - E 1007,8 45 0,0
18.05.2019 10:00:00 9,4 8,7 12,2 9,7 18 10 - - ENE 1007,9 20 0,0
18.05.2019 09:00:00 9,2 8,6 - - 22 12 - - ENE 1008,0 7 0,0
18.05.2019 08:00:00 9,0 8,6 - - 16 9 - - ENE 1008,1 65 0,2
18.05.2019 07:00:00 8,7 8,5 - - 15 8 - - ENE 1008,4 25 0,0
18.05.2019 06:00:00 8,5 8,2 - - 21 11 - - ENE 1008,7 8 0,2
18.05.2019 05:00:00 8,3 8,1 - - 16 9 - - ENE 1009,2 8 0,8
18.05.2019 04:00:00 8,3 7,9 - - 21 11 - - ENE 1009,9 5 0,4
18.05.2019 03:00:00 8,2 7,9 - - 13 7 - - ENE 1010,5 8 0,8
18.05.2019 02:00:00 8,1 7,7 - - 15 8 - - ENE 1011,0 13 0,4

tt = Température de l'air
td = dewpoint
tt -20cm = Température de l'air -20cm
tt -100cm = Température de l'air -100cm
ff = Vitesse du vent
fx = gusts
dd = Direction du vent
ppp = reduced air pressure
vv = visibility
rr = Quantités de précipitations

stations d'obs. à proximité